Location: Fishcreek Rd Observing Site
(41.1865°N, 81.4271°W)
Time: 17:59:34
(UTC-04:00)

Iridium 75 - Visible Passes

Search period start: 21 August 2014 00:00
Search period end: 31 August 2014 00:00
Orbit: 776 x 779 km, 86.4° (Epoch: 21 August)

Date Brightness Start Highest point End Pass type
(mag) Time Alt. Az. Time Alt. Az. Time Alt. Az.
21 Aug 7.4 00:05:22 34° WNW 00:05:22 34° WNW 00:09:32 10° NNW visible
21 Aug 7.8 21:51:21 14° ENE 21:51:21 14° ENE 21:53:46 10° NE visible
21 Aug 6.5 23:31:49 58° NW 23:31:49 58° NW 23:36:19 10° N visible
22 Aug 6.2 22:58:14 62° NE 22:58:14 62° NE 23:02:48 10° N visible
23 Aug 8.5 00:38:42 14° WNW 00:38:52 14° WNW 00:41:26 10° NW visible
23 Aug 6.7 22:24:39 37° ENE 22:24:39 37° ENE 22:28:58 10° NNE visible
24 Aug 7.8 00:05:06 25° WNW 00:05:06 25° WNW 00:09:14 10° NNW visible
24 Aug 7.4 21:51:03 21° ENE 21:51:03 21° ENE 21:54:43 10° NNE visible
24 Aug 6.9 23:31:30 44° WNW 23:31:30 44° WNW 23:36:16 10° N visible
25 Aug 8.0 21:17:26 11° E 21:17:46 11° ENE 21:19:12 10° ENE visible
25 Aug 6.0 22:57:53 80° NW 22:57:53 80° NW 23:02:55 10° N visible
26 Aug 6.1 22:24:15 54° E 22:24:15 54° E 22:29:17 10° NNE visible
27 Aug 8.3 00:04:42 17° W 00:05:17 17° WNW 00:08:42 10° NNW visible
27 Aug 6.9 21:50:36 29° E 21:50:51 30° E 21:55:19 10° NNE visible
27 Aug 7.5 23:31:03 30° W 23:31:29 31° W 23:36:05 10° NNW visible
28 Aug 7.6 21:16:55 16° E 21:17:38 17° ENE 21:20:47 10° NE visible
28 Aug 6.4 22:57:22 55° WSW 22:57:48 56° W 23:02:57 10° N visible
29 Aug 5.9 22:23:40 69° SSE 22:24:15 79° E 22:29:29 10° N visible
30 Aug 8.7 00:04:07 11° W 00:05:38 12° WNW 00:07:32 10° NW visible
30 Aug 6.4 21:49:56 39° ESE 21:50:50 42° E 21:55:43 10° NNE visible
30 Aug 8.0 23:30:23 20° W 23:31:44 22° WNW 23:35:43 10° NNW visible
